Pembrey Sands, United Kingdom

5:40 AM GMT on February 21, 2018 (GMT +0000)
Pembrey Sands

Weather History for EGOP - November, 2012

Change the Weather History Date:

Saturday, November 10, 2012

  Actual Average Record
Temperature  
Mean Temperature 42 °F -  
Max Temperature 51 °F - - ()
Min Temperature 32 °F - - ()
Degree Days  
Heating Degree Days 24    
Moisture  
Dew Point 34 °F    
Average Humidity 73    
Maximum Humidity 76    
Minimum Humidity 64    
Precipitation  
Precipitation 0.03 in - - ()
Sea Level Pressure  
Sea Level Pressure 29.46 in    
Wind  
Wind Speed 4 mph ()    
Max Wind Speed 15 mph    
Max Gust Speed -    
Visibility 7.2 miles    
Events      
T = Trace of Precipitation, MM = Missing Value Source: Averaged Metar Reports

Daily Weather History Graph

Daily Weather History Graph

Search for Another Location

Airport or City:

Trip Planner

Search our weather history database for the weather conditions in past years. The results will help you decide how hot, cold, wet, or windy it might be!

Date:

Astronomy

Nov. 10, 2012 Rise Set
Actual Time 7:28 AM GMT 4:34 PM GMT
Civil Twilight 6:51 AM GMT 5:10 PM GMT
Nautical Twilight 6:11 AM GMT 5:51 PM GMT
Astronomical Twilight 5:31 AM GMT 6:30 PM GMT
Moon 2:51 AM GMT (11/10) 2:34 PM GMT (11/10)
Length of Visible Light 10h 19m
Length of Day
9h 05m
Waning Crescent, 16% of the Moon is Illuminated
Nov 10
Waning Crescent
Nov 13
New
Nov 20
First Quarter
Nov 28
Full
Dec 6
Last Quarter

Hourly Weather History & Observations

Time (GMT) Temp. Windchill Dew Point Humidity Pressure Visibility Wind Dir Wind Speed Gust Speed Precip Events Conditions
12:50 AM 46.4 °F - 39.2 °F 76% 29.47 in 4.3 mi East 2.3 mph - N/A   Mostly Cloudy
1:50 AM 44.6 °F - 37.4 °F 76% 29.44 in 0.9 mi Calm Calm - N/A   Mostly Cloudy
2:50 AM 41 °F - 33 °F 66% 29.46 in 8 mi NW 3.5 mph - -   Scattered Clouds
2:50 AM 41.0 °F 39.0 °F 33.8 °F 76% 29.44 in 6.2 mi NW 3.5 mph - N/A   Mostly Cloudy
3:50 AM 37.4 °F - 30.2 °F 75% 29.44 in 0.2 mi North 2.3 mph - N/A   Mostly Cloudy
4:50 AM 37.4 °F - 30.2 °F 75% 29.44 in 5.6 mi NNE 2.3 mph - N/A   Partly Cloudy
5:50 AM 37 °F - 30 °F 67% 29.43 in 1 mi NE 2.3 mph - -   Scattered Clouds
5:50 AM 37.4 °F - 30.2 °F 75% 29.42 in 1.1 mi NE 2.3 mph - N/A   Partly Cloudy
6:50 AM 35.6 °F 32.8 °F 28.4 °F 75% 29.42 in 6.2 mi North 3.5 mph - N/A   Partly Cloudy
7:50 AM 39.2 °F 37.0 °F 32.0 °F 75% 29.42 in 6.2 mi East 3.5 mph - N/A   Scattered Clouds
8:50 AM 39 °F - 32 °F 68% 29.45 in 12 mi East 3.5 mph - -   Partly Cloudy
8:50 AM 39.2 °F 37.0 °F 32.0 °F 75% 29.44 in 6.2 mi East 3.5 mph - N/A   Scattered Clouds
10:50 AM 50.0 °F - 42.8 °F 76% 29.42 in 6.2 mi SSE 4.6 mph - N/A   Partly Cloudy
11:50 AM 50 °F - 42 °F 67% 29.43 in 19 mi South 5.8 mph - -  
11:50 AM 50.0 °F - 42.8 °F 76% 29.42 in 6.2 mi South 5.8 mph - N/A   Unknown
12:50 PM 51.8 °F - 42.8 °F 71% 29.42 in 6.2 mi South 5.8 mph - N/A   Unknown
1:50 PM 48.2 °F - 39.2 °F 71% 29.42 in 6.2 mi NW 8.1 mph - N/A   Partly Cloudy
2:50 PM 48 °F - 40 °F 67% 29.42 in 12 mi WNW 12.7 mph - -   Partly Cloudy
2:50 PM 48.2 °F - 41.0 °F 76% 29.42 in 6.2 mi WNW 12.7 mph - N/A   Mostly Cloudy
3:50 PM 48.2 °F - 39.2 °F 71% 29.42 in 6.2 mi West 15.0 mph - N/A   Mostly Cloudy
4:50 PM 46.4 °F 42.4 °F 39.2 °F 76% 29.42 in 6.2 mi WNW 8.1 mph - N/A   Mostly Cloudy
5:50 PM 45 °F - 37 °F 66% 29.47 in 16 mi WNW 5.8 mph - -   Scattered Clouds
5:50 PM 44.6 °F 41.4 °F 37.4 °F 76% 29.44 in 6.2 mi WNW 5.8 mph - N/A   Partly Cloudy
6:50 PM 44.6 °F 39.7 °F 35.6 °F 71% 29.47 in 6.2 mi NW 9.2 mph - N/A   Scattered Clouds
7:50 PM 42.8 °F 38.6 °F 35.6 °F 76% 29.50 in 6.2 mi NW 6.9 mph - N/A   Unknown
8:50 PM 39 °F - 31 °F 65%  in 17 mi NNW 5.8 mph - -   Scattered Clouds
8:50 PM 39.2 °F 35.0 °F 32.0 °F 75% 29.53 in 6.2 mi NNW 5.8 mph - N/A   Partly Cloudy
9:50 PM 33.8 °F 30.8 °F 26.6 °F 75% 29.53 in 6.2 mi North 3.5 mph - N/A   Unknown
10:50 PM 32.0 °F 28.7 °F 24.8 °F 75% 29.56 in 6.2 mi NNE 3.5 mph - N/A   Unknown
11:50 PM 32 °F - 24 °F 64% 29.61 in 14 mi NE 3.5 mph - -  
11:50 PM 32.0 °F 28.7 °F 24.8 °F 75% 29.59 in 6.2 mi NE 3.5 mph - N/A   Unknown